Location: *
(0.1100°N, 5.5000°E)
Time: 07:58:05
(UTC+00:00)

IRIDIUM 33 DEB - Visible Passes

Search period start: 03 December 2023 00:00
Search period end: 13 December 2023 00:00
Orbit: 661 x 834 km, 86.4° (Epoch: 02 December)

Date Brightness Start Highest point End Pass type
(mag) Time Alt. Az. Time Alt. Az. Time Alt. Az.
03 Dec ? 04:05:32 10° S 04:10:38 58° W 04:15:22 10° NNW visible
04 Dec ? 03:22:59 10° SSE 03:27:54 45° E 03:31:09 19° NNE visible
05 Dec ? 02:41:54 10° SE 02:44:43 15° E 02:46:44 12° ENE visible
05 Dec ? 04:20:13 10° SSW 04:24:29 27° W 04:26:25 21° NW visible
06 Dec ? 03:35:55 10° S 03:41:01 86° W 03:41:46 64° N visible
07 Dec ? 02:52:44 10° SSE 02:56:51 29° E 02:56:51 29° E visible
07 Dec ? 04:34:20 10° WSW 04:36:30 13° W 04:36:30 13° W visible
08 Dec ? 03:47:44 10° SSW 03:51:16 36° SW 03:51:16 36° SW visible
09 Dec ? 03:02:53 10° SSE 03:05:45 33° SSE 03:05:45 33° SSE visible
10 Dec ? 02:19:28 10° SE 02:19:55 11° SE 02:19:55 11° SE visible
10 Dec ? 03:58:28 10° SW 03:59:29 14° SW 03:59:29 14° SW visible
11 Dec ? 03:11:53 10° S 03:13:19 19° S 03:13:19 19° S visible
12 Dec ? 02:26:41 10° SSE 02:26:50 11° SSE 02:26:50 11° SSE visible
